Time,TemperatureF,DewpointF,PressureIn,WindDirection,WindDirectionDegrees,WindSpeedMPH,WindSpeedGustMPH,Humidity,HourlyPrecipIn,Conditions,Clouds,dailyrainin,SoftwareType,DateUTC
2013-01-30 00:00:00,63.1,56.9,29.60,South,177,16.8,18.4,80,0.00,BKN,,0.02,WeatherDisplay:10.37,2013-01-30 05:00:00,
2013-01-30 00:03:00,63.1,56.9,29.60,South,177,16.8,18.4,80,0.00,RA,,0.00,WeatherDisplay:10.37,2013-01-30 05:03:00,
2013-01-30 00:08:00,63.1,56.9,29.60,SE,132,18.1,21.9,80,0.00,RA,,0.00,WeatherDisplay:10.37,2013-01-30 05:08:00,
2013-01-30 00:13:00,63.3,57.0,29.60,SSE,155,14.8,16.1,80,0.00,CLR,,0.00,WeatherDisplay:10.37,2013-01-30 05:13:00,
2013-01-30 00:18:00,63.3,57.0,29.60,SSW,199,5.3,8.1,80,0.00,CLR,,0.00,WeatherDisplay:10.37,2013-01-30 05:18:00,
2013-01-30 00:23:00,63.3,57.0,29.59,SSE,155,6.5,6.9,80,0.00,CLR,,0.00,WeatherDisplay:10.37,2013-01-30 05:23:00,
2013-01-30 00:28:00,63.5,56.9,29.59,SSE,155,12.1,12.7,79,0.00,CLR,,0.00,WeatherDisplay:10.37,2013-01-30 05:28:00,
2013-01-30 00:33:00,63.7,57.0,29.59,South,177,11.3,12.5,79,0.00,CLR,,0.00,WeatherDisplay:10.37,2013-01-30 05:33:00,
2013-01-30 00:38:00,63.7,57.0,29.59,SW,222,12.7,12.7,79,0.00,CLR,,0.00,WeatherDisplay:10.37,2013-01-30 05:38:00,
2013-01-30 00:43:00,63.7,57.0,29.58,South,177,16.1,16.1,79,0.00,CLR,,0.00,WeatherDisplay:10.37,2013-01-30 05:43:00,
2013-01-30 00:48:00,64.0,57.4,29.58,South,177,12.1,13.8,79,0.00,CLR,,0.00,WeatherDisplay:10.37,2013-01-30 05:48:00,
2013-01-30 00:53:00,64.0,57.4,29.57,South,177,12.5,13.8,79,0.00,CLR,,0.00,WeatherDisplay:10.37,2013-01-30 05:53:00,
2013-01-30 00:58:00,64.0,57.4,29.58,West,267,6.9,6.9,79,0.00,CLR,,0.00,WeatherDisplay:10.37,2013-01-30 05:58:00,
2013-01-30 01:03:00,64.0,57.4,29.56,South,177,19.7,19.7,79,0.00,CLR,,0.00,WeatherDisplay:10.37,2013-01-30 06:03:00,
2013-01-30 01:08:00,64.2,57.2,29.57,SSE,155,12.3,21.9,78,0.00,CLR,,0.00,WeatherDisplay:10.37,2013-01-30 06:08:00,
2013-01-30 01:13:00,64.2,57.2,29.56,South,177,17.7,17.7,78,0.00,OVC,,0.00,WeatherDisplay:10.37,2013-01-30 06:13:00,
2013-01-30 01:18:00,64.2,57.6,29.56,South,177,8.3,9.4,79,0.00,OVC,,0.00,WeatherDisplay:10.37,2013-01-30 06:18:00,
2013-01-30 01:23:00,64.2,57.6,29.56,SW,222,14.1,14.1,79,0.00,OVC,,0.00,WeatherDisplay:10.37,2013-01-30 06:23:00,
2013-01-30 01:28:00,64.4,57.7,29.55,SW,222,8.3,8.3,79,0.00,OVC,,0.00,WeatherDisplay:10.37,2013-01-30 06:28:00,
2013-01-30 01:33:00,64.6,57.6,29.55,SE,132,9.4,9.4,78,0.00,OVC,,0.00,WeatherDisplay:10.37,2013-01-30 06:33:00,
2013-01-30 01:38:00,64.6,57.6,29.55,South,177,14.5,27.6,78,0.00,OVC,,0.00,WeatherDisplay:10.37,2013-01-30 06:38:00,
2013-01-30 01:43:00,64.6,57.6,29.55,South,177,17.7,17.7,78,0.00,OVC,,0.00,WeatherDisplay:10.37,2013-01-30 06:43:00,
2013-01-30 01:48:00,64.6,57.6,29.54,SE,132,17.7,17.7,78,0.00,OVC,,0.00,WeatherDisplay:10.37,2013-01-30 06:48:00,
2013-01-30 01:53:00,64.6,57.6,29.54,SSE,155,7.9,8.1,78,0.00,OVC,,0.00,WeatherDisplay:10.37,2013-01-30 06:53:00,
2013-01-30 01:58:00,64.6,57.6,29.54,South,177,5.6,5.8,78,0.00,OVC,,0.00,WeatherDisplay:10.37,2013-01-30 06:58:00,
2013-01-30 02:03:00,64.6,57.6,29.54,SSE,155,7.4,12.1,78,0.00,OVC,,0.00,WeatherDisplay:10.37,2013-01-30 07:03:00,
2013-01-30 02:08:00,64.8,57.7,29.54,SSE,155,10.0,10.4,78,0.00,OVC,,0.00,WeatherDisplay:10.37,2013-01-30 07:08:00,
2013-01-30 02:13:00,64.8,57.7,29.54,SW,222,7.9,9.2,78,0.00,OVC,,0.00,WeatherDisplay:10.37,2013-01-30 07:13:00,
2013-01-30 02:18:00,64.8,57.7,29.53,SSE,155,12.3,12.7,78,0.00,OVC,,0.00,WeatherDisplay:10.37,2013-01-30 07:18:00,
2013-01-30 02:23:00,64.9,57.9,29.52,East,87,6.3,8.1,78,0.00,OVC,,0.00,WeatherDisplay:10.37,2013-01-30 07:23:00,
2013-01-30 02:28:00,64.9,57.9,29.52,SSE,155,16.6,24.2,78,0.00,OVC,,0.00,WeatherDisplay:10.37,2013-01-30 07:28:00,
2013-01-30 02:33:00,64.9,57.9,29.52,SSE,155,8.3,8.3,78,0.00,OVC,,0.00,WeatherDisplay:10.37,2013-01-30 07:33:00,
2013-01-30 02:38:00,65.1,58.1,29.52,East,87,4.9,8.1,78,0.00,OVC,,0.00,WeatherDisplay:10.37,2013-01-30 07:38:00,
2013-01-30 02:43:00,65.1,58.1,29.52,East,87,4.9,8.1,78,0.00,OVC,,0.00,WeatherDisplay:10.37,2013-01-30 07:43:00,
2013-01-30 02:48:00,65.5,58.1,29.50,ESE,109,6.9,6.9,77,0.00,OVC,,0.00,WeatherDisplay:10.37,2013-01-30 07:48:00,
2013-01-30 02:53:00,65.5,58.1,29.49,SSE,155,20.3,20.7,77,0.00,OVC,,0.00,WeatherDisplay:10.37,2013-01-30 07:53:00,
2013-01-30 02:58:00,65.7,58.3,29.49,South,177,7.3,7.3,77,0.00,OVC,,0.00,WeatherDisplay:10.37,2013-01-30 07:58:00,
2013-01-30 03:03:00,65.7,58.3,29.49,South,177,5.8,8.1,77,0.00,OVC,,0.00,WeatherDisplay:10.37,2013-01-30 08:03:00,
2013-01-30 03:08:00,65.8,58.1,29.47,SSE,155,9.6,12.7,76,0.00,OVC,,0.00,WeatherDisplay:10.37,2013-01-30 08:08:00,
2013-01-30 03:13:00,65.8,58.1,29.46,SE,132,11.8,11.8,76,0.00,OVC,,0.00,WeatherDisplay:10.37,2013-01-30 08:13:00,
2013-01-30 03:18:00,66.0,58.2,29.46,SSE,155,8.5,8.5,76,0.00,OVC,,0.00,WeatherDisplay:10.37,2013-01-30 08:18:00,
2013-01-30 03:23:00,66.0,58.2,29.46,East,87,15.6,16.1,76,0.00,OVC,,0.00,WeatherDisplay:10.37,2013-01-30 08:23:00,
2013-01-30 03:28:00,66.0,58.2,29.45,SSE,155,11.1,21.9,76,0.00,OVC,,0.00,WeatherDisplay:10.37,2013-01-30 08:28:00,
2013-01-30 03:33:00,66.2,58.4,29.45,SE,132,9.2,9.2,76,0.00,OVC,,0.00,WeatherDisplay:10.37,2013-01-30 08:33:00,
2013-01-30 03:38:00,66.4,58.2,29.44,SSE,155,18.2,18.2,75,0.00,OVC,,0.00,WeatherDisplay:10.37,2013-01-30 08:38:00,
2013-01-30 03:43:00,66.4,58.2,29.43,SSW,199,21.0,21.0,75,0.00,OVC,,0.00,WeatherDisplay:10.37,2013-01-30 08:43:00,
2013-01-30 03:48:00,66.7,58.6,29.43,SSW,199,18.1,18.4,75,0.00,OVC,,0.00,WeatherDisplay:10.37,2013-01-30 08:48:00,
2013-01-30 03:53:00,66.7,58.6,29.42,South,177,13.3,13.8,75,0.00,OVC,,0.00,WeatherDisplay:10.37,2013-01-30 08:53:00,
2013-01-30 03:58:00,66.7,58.6,29.41,SSE,155,16.5,17.3,75,0.00,OVC,,0.00,WeatherDisplay:10.37,2013-01-30 08:58:00,
2013-01-30 04:03:00,66.9,58.4,29.41,SSW,199,17.2,17.3,74,0.00,OVC,,0.00,WeatherDisplay:10.37,2013-01-30 09:03:00,
2013-01-30 04:08:00,66.9,58.7,29.40,West,267,10.4,18.4,75,0.00,OVC,,0.00,WeatherDisplay:10.37,2013-01-30 09:08:00,
2013-01-30 04:13:00,66.7,58.6,29.38,SW,222,14.1,19.6,75,0.00,-RA,,0.00,WeatherDisplay:10.37,2013-01-30 09:13:00,
2013-01-30 04:18:00,66.6,58.4,29.41,SW,222,16.5,16.5,75,0.00,-RA,,0.00,WeatherDisplay:10.37,2013-01-30 09:18:00,
2013-01-30 04:23:00,66.0,58.6,29.45,West,267,18.1,18.4,77,0.00,-RA,,0.00,WeatherDisplay:10.37,2013-01-30 09:23:00,
2013-01-30 04:28:00,64.2,57.6,29.45,South,177,15.1,17.3,79,0.02,-RA,,0.02,WeatherDisplay:10.37,2013-01-30 09:28:00,
2013-01-30 04:33:00,63.1,56.9,29.44,WSW,245,7.6,12.7,80,0.02,-RA,,0.04,WeatherDisplay:10.37,2013-01-30 09:33:00,
2013-01-30 04:38:00,62.2,56.3,29.44,West,267,10.5,10.5,81,0.08,-RA,,0.08,WeatherDisplay:10.37,2013-01-30 09:38:00,
2013-01-30 04:43:00,61.0,56.1,29.43,West,267,10.0,10.4,84,0.14,-RA,,0.22,WeatherDisplay:10.37,2013-01-30 09:43:00,
2013-01-30 04:48:00,60.4,55.6,29.48,WSW,245,8.9,9.2,84,0.26,-RA,,0.26,WeatherDisplay:10.37,2013-01-30 09:48:00,
2013-01-30 04:53:00,60.1,55.6,29.47,West,267,9.8,10.4,85,0.39,-RA,,0.39,WeatherDisplay:10.37,2013-01-30 09:53:00,
2013-01-30 04:58:00,59.4,54.8,29.47,West,267,9.6,10.4,85,0.47,-RA,,0.47,WeatherDisplay:10.37,2013-01-30 09:58:00,
2013-01-30 05:03:00,58.8,54.6,29.46,West,267,9.1,9.4,86,0.49,-RA,,0.49,WeatherDisplay:10.37,2013-01-30 10:03:00,
2013-01-30 05:08:00,58.8,54.6,29.50,West,267,10.3,10.4,86,0.49,-RA,,0.49,WeatherDisplay:10.37,2013-01-30 10:08:00,
2013-01-30 05:13:00,58.3,54.1,29.52,West,267,16.8,17.3,86,0.51,RA,,0.53,WeatherDisplay:10.37,2013-01-30 10:13:00,
2013-01-30 05:18:00,57.7,53.6,29.52,SSE,155,8.7,9.4,86,0.53,RA,,0.55,WeatherDisplay:10.37,2013-01-30 10:18:00,
2013-01-30 05:23:00,56.8,52.4,29.53,SW,222,6.0,13.8,85,0.55,RA,,0.55,WeatherDisplay:10.37,2013-01-30 10:23:00,
2013-01-30 05:28:00,55.4,51.0,29.53,West,267,14.5,15.0,85,0.55,RA,,0.57,WeatherDisplay:10.37,2013-01-30 10:28:00,
2013-01-30 05:33:00,55.0,50.6,29.53,NW,312,17.4,17.4,85,0.55,RA,,0.57,WeatherDisplay:10.37,2013-01-30 10:33:00,
2013-01-30 05:38:00,54.3,49.6,29.51,NW,312,6.7,8.1,84,0.49,SCT,,0.57,WeatherDisplay:10.37,2013-01-30 10:38:00,
2013-01-30 05:43:00,53.6,49.2,29.51,WNW,289,8.9,9.2,85,0.43,SCT,,0.57,WeatherDisplay:10.37,2013-01-30 10:43:00,
2013-01-30 05:48:00,53.2,48.8,29.52,NNW,335,13.1,13.1,85,0.31,SCT,,0.57,WeatherDisplay:10.37,2013-01-30 10:48:00,
2013-01-30 05:53:00,53.1,49.0,29.51,NNW,335,13.1,13.1,86,0.18,SCT,,0.57,WeatherDisplay:10.37,2013-01-30 10:53:00,
2013-01-30 05:58:00,53.1,49.0,29.51,NNW,335,13.1,13.1,86,0.10,SCT,,0.57,WeatherDisplay:10.37,2013-01-30 10:58:00,
2013-01-30 06:03:00,53.1,49.0,29.51,NNW,335,6.0,6.0,86,0.08,SCT,,0.57,WeatherDisplay:10.37,2013-01-30 11:03:00,
2013-01-30 06:08:00,53.1,49.0,29.51,North,357,3.8,9.2,86,0.08,SCT,,0.57,WeatherDisplay:10.37,2013-01-30 11:08:00,
2013-01-30 06:13:00,53.1,49.0,29.52,NNW,335,4.6,5.8,86,0.06,-RA,,0.57,WeatherDisplay:10.37,2013-01-30 11:13:00,
2013-01-30 06:18:00,53.1,49.0,29.51,NNE,19,2.7,3.5,86,0.04,-RA,,0.57,WeatherDisplay:10.37,2013-01-30 11:18:00,
2013-01-30 06:23:00,52.5,48.8,29.52,West,267,0.0,3.5,87,0.02,-RA,,0.57,WeatherDisplay:10.37,2013-01-30 11:23:00,
2013-01-30 06:28:00,52.5,48.8,29.53,NNE,19,0.4,2.3,87,0.00,-RA,,0.57,WeatherDisplay:10.37,2013-01-30 11:28:00,
2013-01-30 06:33:00,52.5,48.8,29.53,SSE,155,3.6,3.6,87,0.00,-RA,,0.57,WeatherDisplay:10.37,2013-01-30 11:33:00,
2013-01-30 06:35:00,41.5,36.8,29.47,WSW,252,7.0,7.0,83,0.02,RA,,0.86,WeatherDisplay:10.37,2013-01-30 11:35:00,
2013-01-30 06:38:00,52.5,48.8,29.53,SE,132,1.1,1.1,87,0.00,-RA,,0.57,WeatherDisplay:10.37,2013-01-30 11:38:00,
2013-01-30 06:40:00,41.5,36.8,29.47,West,261,7.0,7.0,83,0.02,RA,,0.86,WeatherDisplay:10.37,2013-01-30 11:40:00,
2013-01-30 06:41:00,41.5,36.8,29.47,West,267,7.0,7.0,83,0.00,OVC,,0.86,WeatherDisplay:10.37,2013-01-30 11:41:00,
2013-01-30 06:42:00,41.5,36.8,29.47,West,267,7.0,0.0,83,0.00,OVC,,0.86,WeatherDisplay:10.37,2013-01-30 11:42:00,
2013-01-30 06:43:00,52.5,48.8,29.53,ENE,65,1.6,1.8,87,0.00,-RA,,0.57,WeatherDisplay:10.37,2013-01-30 11:43:00,
2013-01-30 06:44:00,41.5,36.8,29.47,West,267,7.0,0.0,83,0.00,OVC,,0.86,WeatherDisplay:10.37,2013-01-30 11:44:00,
2013-01-30 06:45:00,41.5,36.8,29.47,West,267,7.0,7.0,83,0.00,CLR,,0.86,WeatherDisplay:10.37,2013-01-30 11:45:00,
2013-01-30 06:48:00,52.3,48.6,29.52,East,87,0.3,1.1,87,0.02,-RA,,0.59,WeatherDisplay:10.37,2013-01-30 11:48:00,
2013-01-30 06:50:00,41.5,36.8,29.47,West,267,7.0,7.0,83,0.00,CLR,,0.86,WeatherDisplay:10.37,2013-01-30 11:50:00,
2013-01-30 06:53:00,52.3,48.6,29.52,ESE,109,1.8,2.3,87,0.02,-RA,,0.59,WeatherDisplay:10.37,2013-01-30 11:53:00,
2013-01-30 06:55:00,41.5,36.8,29.47,West,267,7.0,7.0,83,0.00,CLR,,0.86,WeatherDisplay:10.37,2013-01-30 11:55:00,
2013-01-30 06:58:00,52.3,48.6,29.52,SSE,155,0.0,0.0,87,0.02,-RA,,0.59,WeatherDisplay:10.37,2013-01-30 11:58:00,
2013-01-30 07:00:00,41.5,36.8,29.47,West,267,7.0,7.0,83,0.00,CLR,,0.86,WeatherDisplay:10.37,2013-01-30 12:00:00,
2013-01-30 07:03:00,52.3,48.6,29.54,South,177,0.5,1.1,87,0.08,-RA,,0.65,WeatherDisplay:10.37,2013-01-30 12:03:00,
2013-01-30 07:05:00,41.5,36.8,29.47,West,267,7.0,7.0,83,0.00,CLR,,0.86,WeatherDisplay:10.37,2013-01-30 12:05:00,
2013-01-30 07:08:00,52.3,48.6,29.53,SSE,155,0.0,0.0,87,0.08,-RA,,0.65,WeatherDisplay:10.37,2013-01-30 12:08:00,
2013-01-30 07:10:00,41.5,36.8,29.47,West,267,7.0,7.0,83,0.00,CLR,,0.86,WeatherDisplay:10.37,2013-01-30 12:10:00,
2013-01-30 07:13:00,52.3,48.6,29.55,South,177,0.3,1.3,87,0.10,-RA,,0.67,WeatherDisplay:10.37,2013-01-30 12:13:00,
2013-01-30 07:15:00,41.5,36.8,29.47,West,267,7.0,7.0,83,0.00,CLR,,0.86,WeatherDisplay:10.37,2013-01-30 12:15:00,
2013-01-30 07:18:00,52.3,48.6,29.55,SSW,199,1.1,1.3,87,0.10,-RA,,0.67,WeatherDisplay:10.37,2013-01-30 12:18:00,
2013-01-30 07:20:00,41.5,36.8,29.47,West,267,7.0,7.0,83,0.00,CLR,,0.86,WeatherDisplay:10.37,2013-01-30 12:20:00,
2013-01-30 07:23:00,52.3,48.6,29.54,SSE,155,0.0,0.0,87,0.10,-RA,,0.67,WeatherDisplay:10.37,2013-01-30 12:23:00,
2013-01-30 07:25:00,41.5,36.8,29.47,West,267,7.0,7.0,83,0.00,CLR,,0.86,WeatherDisplay:10.37,2013-01-30 12:25:00,
2013-01-30 07:28:00,52.3,48.6,29.54,South,177,0.0,2.0,87,0.10,-RA,,0.67,WeatherDisplay:10.37,2013-01-30 12:28:00,
2013-01-30 07:30:00,41.5,36.8,29.47,West,267,7.0,7.0,83,0.00,CLR,,0.86,WeatherDisplay:10.37,2013-01-30 12:30:00,
2013-01-30 07:33:00,52.3,48.6,29.55,SSW,199,3.0,3.4,87,0.10,-RA,,0.67,WeatherDisplay:10.37,2013-01-30 12:33:00,
2013-01-30 07:38:00,52.3,48.6,29.55,WSW,245,0.0,0.0,87,0.12,-RA,,0.69,WeatherDisplay:10.37,2013-01-30 12:38:00,
2013-01-30 07:43:00,52.3,48.6,29.55,SSE,155,0.0,0.0,87,0.12,-RA,,0.69,WeatherDisplay:10.37,2013-01-30 12:43:00,
2013-01-30 07:48:00,52.3,48.6,29.55,SE,132,0.0,0.0,87,0.10,-RA,,0.69,WeatherDisplay:10.37,2013-01-30 12:48:00,
2013-01-30 07:53:00,52.3,48.6,29.54,SSE,155,3.0,3.5,87,0.10,-RA,,0.69,WeatherDisplay:10.37,2013-01-30 12:53:00,
2013-01-30 07:58:00,52.3,48.6,29.55,South,177,2.9,3.5,87,0.10,-RA,,0.69,WeatherDisplay:10.37,2013-01-30 12:58:00,
2013-01-30 08:03:00,52.2,48.4,29.55,South,177,4.0,8.1,87,0.10,-RA,,0.69,WeatherDisplay:10.37,2013-01-30 13:03:00,
2013-01-30 08:08:00,52.2,48.7,29.56,SE,132,3.2,3.5,88,0.04,-RA,,0.69,WeatherDisplay:10.37,2013-01-30 13:08:00,
2013-01-30 08:13:00,52.2,48.7,29.55,SSE,155,0.0,1.8,88,0.02,-RA,,0.69,WeatherDisplay:10.37,2013-01-30 13:13:00,
2013-01-30 08:18:00,52.2,48.7,29.54,SSE,155,2.2,2.3,88,0.04,-RA,,0.71,WeatherDisplay:10.37,2013-01-30 13:18:00,
2013-01-30 08:23:00,52.2,48.7,29.54,South,177,0.0,3.5,88,0.04,-RA,,0.71,WeatherDisplay:10.37,2013-01-30 13:23:00,
2013-01-30 08:28:00,52.2,48.7,29.53,SE,132,2.3,2.3,88,0.06,-RA,,0.73,WeatherDisplay:10.37,2013-01-30 13:28:00,
2013-01-30 08:33:00,52.2,48.7,29.54,South,177,5.1,5.1,88,0.06,-RA,,0.73,WeatherDisplay:10.37,2013-01-30 13:33:00,
2013-01-30 08:38:00,52.2,48.7,29.52,SE,132,1.8,2.3,88,0.06,-RA,,0.76,WeatherDisplay:10.37,2013-01-30 13:38:00,
2013-01-30 08:43:00,52.2,48.7,29.51,SE,132,2.3,8.3,88,0.06,-RA,,0.78,WeatherDisplay:10.37,2013-01-30 13:43:00,
2013-01-30 08:48:00,52.2,48.7,29.51,ESE,109,6.1,8.1,88,0.08,-RA,,0.78,WeatherDisplay:10.37,2013-01-30 13:48:00,
2013-01-30 08:53:00,52.3,49.2,29.50,ESE,109,2.9,11.5,89,0.08,-RA,,0.78,WeatherDisplay:10.37,2013-01-30 13:53:00,
2013-01-30 08:58:00,52.3,49.2,29.50,SSW,199,5.8,5.8,89,0.10,-RA,,0.80,WeatherDisplay:10.37,2013-01-30 13:58:00,
2013-01-30 09:03:00,52.3,49.2,29.49,ESE,109,7.2,7.2,89,0.10,-RA,,0.80,WeatherDisplay:10.37,2013-01-30 14:03:00,
2013-01-30 09:08:00,52.3,49.2,29.49,SSE,155,1.8,2.3,89,0.10,-RA,,0.80,WeatherDisplay:10.37,2013-01-30 14:08:00,
2013-01-30 09:13:00,52.3,49.2,29.50,SW,222,8.5,10.4,89,0.10,-RA,,0.80,WeatherDisplay:10.37,2013-01-30 14:13:00,
2013-01-30 09:18:00,52.3,49.2,29.51,SSE,155,4.2,4.6,89,0.08,-RA,,0.80,WeatherDisplay:10.37,2013-01-30 14:18:00,
2013-01-30 09:23:00,52.3,49.2,29.51,SW,222,2.9,5.8,89,0.08,-RA,,0.80,WeatherDisplay:10.37,2013-01-30 14:23:00,
2013-01-30 09:28:00,52.3,49.2,29.52,SSE,155,6.9,8.1,89,0.06,-RA,,0.80,WeatherDisplay:10.37,2013-01-30 14:28:00,
2013-01-30 09:33:00,52.5,49.4,29.50,SE,132,8.6,12.7,89,0.06,-RA,,0.80,WeatherDisplay:10.37,2013-01-30 14:33:00,
2013-01-30 09:38:00,52.5,49.4,29.48,SSE,155,4.2,5.8,89,0.04,-RA,,0.80,WeatherDisplay:10.37,2013-01-30 14:38:00,
2013-01-30 09:43:00,52.3,49.2,29.48,WSW,245,8.0,10.4,89,0.04,-RA,,0.80,WeatherDisplay:10.37,2013-01-30 14:43:00,
2013-01-30 09:48:00,52.5,49.4,29.48,SSW,199,14.7,15.0,89,0.02,-RA,,0.80,WeatherDisplay:10.37,2013-01-30 14:48:00,
2013-01-30 09:53:00,52.5,49.4,29.47,South,177,5.8,9.2,89,0.02,-RA,,0.80,WeatherDisplay:10.37,2013-01-30 14:53:00,
2013-01-30 09:58:00,52.9,49.7,29.48,South,177,5.7,8.7,89,0.00,-RA,,0.80,WeatherDisplay:10.37,2013-01-30 14:58:00,
2013-01-30 10:03:00,52.9,49.7,29.49,SSE,155,9.4,9.4,89,0.00,-RA,,0.80,WeatherDisplay:10.37,2013-01-30 15:03:00,
2013-01-30 10:08:00,52.9,49.7,29.50,SE,132,6.5,6.9,89,0.00,-RA,,0.80,WeatherDisplay:10.37,2013-01-30 15:08:00,
2013-01-30 10:13:00,52.9,49.7,29.51,SW,222,10.3,10.4,89,0.00,OVC,,0.80,WeatherDisplay:10.37,2013-01-30 15:13:00,
2013-01-30 10:18:00,52.9,49.7,29.50,SE,132,8.3,21.9,89,0.00,OVC,,0.80,WeatherDisplay:10.37,2013-01-30 15:18:00,
2013-01-30 10:23:00,52.9,49.7,29.49,SE,132,6.5,8.1,89,0.00,OVC,,0.80,WeatherDisplay:10.37,2013-01-30 15:23:00,
2013-01-30 10:28:00,52.9,49.7,29.49,West,267,9.3,9.6,89,0.00,OVC,,0.80,WeatherDisplay:10.37,2013-01-30 15:28:00,
2013-01-30 10:33:00,53.1,49.9,29.48,SSW,199,9.8,16.1,89,0.00,OVC,,0.80,WeatherDisplay:10.37,2013-01-30 15:33:00,
2013-01-30 10:38:00,53.2,50.1,29.48,SSE,155,3.6,6.9,89,0.00,OVC,,0.80,WeatherDisplay:10.37,2013-01-30 15:38:00,
2013-01-30 10:43:00,53.2,50.1,29.48,WSW,245,6.9,6.9,89,0.00,OVC,,0.80,WeatherDisplay:10.37,2013-01-30 15:43:00,
2013-01-30 10:48:00,53.2,50.1,29.49,WSW,245,11.8,11.8,89,0.00,OVC,,0.80,WeatherDisplay:10.37,2013-01-30 15:48:00,
2013-01-30 10:53:00,53.4,50.3,29.49,SSW,199,7.7,8.1,89,0.00,OVC,,0.80,WeatherDisplay:10.37,2013-01-30 15:53:00,
2013-01-30 10:58:00,53.4,50.0,29.47,SSW,199,5.8,5.8,88,0.00,OVC,,0.80,WeatherDisplay:10.37,2013-01-30 15:58:00,
2013-01-30 11:03:00,53.4,50.0,29.47,SSE,155,4.0,10.4,88,0.00,OVC,,0.80,WeatherDisplay:10.37,2013-01-30 16:03:00,
2013-01-30 11:08:00,53.8,50.3,29.49,SSE,155,5.9,8.1,88,0.00,OVC,,0.80,WeatherDisplay:10.37,2013-01-30 16:08:00,
2013-01-30 11:13:00,53.8,50.3,29.49,ESE,109,2.5,8.1,88,0.00,BKN,,0.80,WeatherDisplay:10.37,2013-01-30 16:13:00,
2013-01-30 11:18:00,53.8,50.3,29.50,South,177,6.5,9.2,88,0.00,BKN,,0.80,WeatherDisplay:10.37,2013-01-30 16:18:00,
2013-01-30 11:23:00,54.0,50.5,29.49,SSW,199,14.5,15.0,88,0.00,BKN,,0.80,WeatherDisplay:10.37,2013-01-30 16:23:00,
2013-01-30 11:28:00,54.1,50.7,29.48,SE,132,6.7,8.1,88,0.00,BKN,,0.80,WeatherDisplay:10.37,2013-01-30 16:28:00,
2013-01-30 11:33:00,54.1,50.7,29.48,South,177,5.6,6.9,88,0.00,BKN,,0.80,WeatherDisplay:10.37,2013-01-30 16:33:00,
2013-01-30 11:38:00,54.3,50.8,29.47,South,177,13.4,13.8,88,0.00,BKN,,0.80,WeatherDisplay:10.37,2013-01-30 16:38:00,
2013-01-30 11:43:00,54.3,50.5,29.51,West,267,9.3,10.4,87,0.00,BKN,,0.80,WeatherDisplay:10.37,2013-01-30 16:43:00,
2013-01-30 11:48:00,54.5,50.7,29.51,South,177,13.0,21.9,87,0.00,BKN,,0.80,WeatherDisplay:10.37,2013-01-30 16:48:00,
2013-01-30 11:53:00,54.9,51.1,29.51,SSW,199,18.8,18.8,87,0.00,BKN,,0.80,WeatherDisplay:10.37,2013-01-30 16:53:00,
2013-01-30 11:58:00,55.0,51.2,29.49,SSW,199,16.8,17.3,87,0.00,BKN,,0.80,WeatherDisplay:10.37,2013-01-30 16:58:00,
2013-01-30 12:03:00,55.0,50.9,29.48,SSW,199,10.7,10.7,86,0.00,BKN,,0.80,WeatherDisplay:10.37,2013-01-30 17:03:00,
2013-01-30 12:08:00,55.0,50.9,29.49,SW,222,13.9,13.9,86,0.00,BKN,,0.80,WeatherDisplay:10.37,2013-01-30 17:08:00,
2013-01-30 12:13:00,54.9,50.4,29.47,SE,132,7.5,8.1,85,0.00,BKN,,0.80,WeatherDisplay:10.37,2013-01-30 17:13:00,
2013-01-30 12:18:00,54.9,50.4,29.47,SSE,155,12.8,14.3,85,0.00,BKN,,0.80,WeatherDisplay:10.37,2013-01-30 17:18:00,
2013-01-30 12:23:00,55.0,50.6,29.47,South,177,19.0,19.6,85,0.00,BKN,,0.80,WeatherDisplay:10.37,2013-01-30 17:23:00,
2013-01-30 12:28:00,55.0,50.6,29.47,South,177,19.0,19.0,85,0.00,BKN,,0.80,WeatherDisplay:10.37,2013-01-30 17:28:00,
2013-01-30 12:33:00,55.0,50.6,29.47,SSE,155,10.1,10.4,85,0.00,BKN,,0.80,WeatherDisplay:10.37,2013-01-30 17:33:00,
2013-01-30 12:38:00,55.0,50.3,29.47,SSE,155,6.9,12.3,84,0.00,BKN,,0.80,WeatherDisplay:10.37,2013-01-30 17:38:00,
2013-01-30 12:43:00,55.2,50.5,29.46,South,177,12.2,12.2,84,0.00,BKN,,0.80,WeatherDisplay:10.37,2013-01-30 17:43:00,
2013-01-30 12:48:00,55.2,50.5,29.46,WNW,289,16.8,16.8,84,0.00,BKN,,0.80,WeatherDisplay:10.37,2013-01-30 17:48:00,
2013-01-30 12:53:00,55.0,50.3,29.46,SSE,155,10.3,10.4,84,0.00,BKN,,0.80,WeatherDisplay:10.37,2013-01-30 17:53:00,
2013-01-30 12:58:00,55.0,50.0,29.46,South,177,10.5,10.5,83,0.00,BKN,,0.80,WeatherDisplay:10.37,2013-01-30 17:58:00,
2013-01-30 13:03:00,55.0,50.0,29.44,WSW,245,14.0,14.0,83,0.00,BKN,,0.80,WeatherDisplay:10.37,2013-01-30 18:03:00,
2013-01-30 13:08:00,55.0,50.0,29.44,SW,222,10.1,10.4,83,0.00,BKN,,0.80,WeatherDisplay:10.37,2013-01-30 18:08:00,
2013-01-30 13:13:00,55.0,50.0,29.44,SSW,199,19.4,19.6,83,0.00,OVC,,0.80,WeatherDisplay:10.37,2013-01-30 18:13:00,
2013-01-30 13:18:00,55.0,50.0,29.43,WNW,289,10.3,10.4,83,0.00,OVC,,0.80,WeatherDisplay:10.37,2013-01-30 18:18:00,
2013-01-30 13:23:00,54.9,49.8,29.42,South,177,6.5,15.4,83,0.00,OVC,,0.80,WeatherDisplay:10.37,2013-01-30 18:23:00,
2013-01-30 13:28:00,55.0,49.6,29.41,West,267,6.8,9.2,82,0.00,OVC,,0.80,WeatherDisplay:10.37,2013-01-30 18:28:00,
2013-01-30 13:33:00,55.0,49.6,29.42,WSW,245,2.0,4.6,82,0.00,OVC,,0.80,WeatherDisplay:10.37,2013-01-30 18:33:00,
2013-01-30 13:38:00,55.2,49.8,29.41,SW,222,6.0,11.8,82,0.00,OVC,,0.80,WeatherDisplay:10.37,2013-01-30 18:38:00,
2013-01-30 13:43:00,55.6,50.2,29.41,SSW,199,14.5,17.3,82,0.00,OVC,,0.80,WeatherDisplay:10.37,2013-01-30 18:43:00,
2013-01-30 13:48:00,56.1,50.7,29.41,South,177,7.2,7.2,82,0.00,OVC,,0.80,WeatherDisplay:10.37,2013-01-30 18:48:00,
2013-01-30 13:53:00,56.5,50.7,29.42,SW,222,8.9,9.2,81,0.00,OVC,,0.80,WeatherDisplay:10.37,2013-01-30 18:53:00,
2013-01-30 13:58:00,56.3,49.9,29.43,WNW,289,8.2,12.7,79,0.00,OVC,,0.80,WeatherDisplay:10.37,2013-01-30 18:58:00,
2013-01-30 14:03:00,55.9,49.5,29.43,WSW,245,11.2,11.5,79,0.00,OVC,,0.80,WeatherDisplay:10.37,2013-01-30 19:03:00,
2013-01-30 14:08:00,55.9,49.9,29.43,SE,132,11.4,11.5,80,0.00,OVC,,0.80,WeatherDisplay:10.37,2013-01-30 19:08:00,
2013-01-30 14:13:00,56.1,49.7,29.42,West,267,11.6,17.3,79,0.00,OVC,,0.80,WeatherDisplay:10.37,2013-01-30 19:13:00,
2013-01-30 14:18:00,55.9,49.5,29.42,SW,222,12.3,12.7,79,0.00,OVC,,0.80,WeatherDisplay:10.37,2013-01-30 19:18:00,
2013-01-30 14:23:00,55.9,49.2,29.42,SW,222,5.4,5.8,78,0.00,OVC,,0.80,WeatherDisplay:10.37,2013-01-30 19:23:00,
2013-01-30 14:28:00,55.9,49.2,29.42,WSW,245,10.1,10.5,78,0.00,OVC,,0.80,WeatherDisplay:10.37,2013-01-30 19:28:00,
2013-01-30 14:33:00,55.9,49.2,29.40,South,177,8.9,9.2,78,0.00,OVC,,0.80,WeatherDisplay:10.37,2013-01-30 19:33:00,
2013-01-30 14:38:00,55.9,49.2,29.41,West,267,8.2,11.5,78,0.00,OVC,,0.80,WeatherDisplay:10.37,2013-01-30 19:38:00,
2013-01-30 14:43:00,55.9,49.2,29.41,WSW,245,8.0,15.0,78,0.00,OVC,,0.80,WeatherDisplay:10.37,2013-01-30 19:43:00,
2013-01-30 14:48:00,55.9,49.2,29.41,WSW,245,8.3,8.3,78,0.00,OVC,,0.80,WeatherDisplay:10.37,2013-01-30 19:48:00,
2013-01-30 14:53:00,55.9,49.2,29.42,SW,222,20.3,20.7,78,0.00,OVC,,0.80,WeatherDisplay:10.37,2013-01-30 19:53:00,
2013-01-30 14:58:00,55.9,49.2,29.42,WSW,245,8.4,11.5,78,0.00,OVC,,0.80,WeatherDisplay:10.37,2013-01-30 19:58:00,
2013-01-30 15:03:00,55.8,48.7,29.41,West,267,4.7,6.9,77,0.00,OVC,,0.80,WeatherDisplay:10.37,2013-01-30 20:03:00,
2013-01-30 15:08:00,55.4,48.3,29.41,SW,222,6.3,6.3,77,0.00,OVC,,0.80,WeatherDisplay:10.37,2013-01-30 20:08:00,
2013-01-30 15:13:00,55.2,48.1,29.41,SW,222,17.1,20.7,77,0.00,OVC,,0.80,WeatherDisplay:10.37,2013-01-30 20:13:00,
2013-01-30 15:18:00,55.2,48.1,29.41,SSW,199,15.9,16.1,77,0.00,OVC,,0.80,WeatherDisplay:10.37,2013-01-30 20:18:00,
2013-01-30 15:23:00,55.2,48.1,29.41,SSW,199,12.3,12.7,77,0.00,OVC,,0.80,WeatherDisplay:10.37,2013-01-30 20:23:00,
2013-01-30 15:28:00,55.2,48.1,29.40,SW,222,9.2,15.0,77,0.00,OVC,,0.80,WeatherDisplay:10.37,2013-01-30 20:28:00,
2013-01-30 15:33:00,55.2,48.1,29.41,SW,222,5.6,5.8,77,0.00,OVC,,0.80,WeatherDisplay:10.37,2013-01-30 20:33:00,
2013-01-30 15:38:00,55.2,48.1,29.40,SSW,199,9.8,10.4,77,0.00,OVC,,0.80,WeatherDisplay:10.37,2013-01-30 20:38:00,
2013-01-30 15:43:00,55.4,48.3,29.39,SSW,199,9.4,11.5,77,0.00,OVC,,0.80,WeatherDisplay:10.37,2013-01-30 20:43:00,
2013-01-30 15:48:00,55.6,48.5,29.40,SSE,155,10.3,10.4,77,0.00,OVC,,0.80,WeatherDisplay:10.37,2013-01-30 20:48:00,
2013-01-30 15:53:00,55.6,48.5,29.39,WSW,245,13.6,13.8,77,0.00,OVC,,0.80,WeatherDisplay:10.37,2013-01-30 20:53:00,
2013-01-30 15:58:00,55.6,48.5,29.39,WSW,245,7.8,7.8,77,0.00,OVC,,0.80,WeatherDisplay:10.37,2013-01-30 20:58:00,
2013-01-30 16:03:00,55.6,48.5,29.38,SSW,199,9.5,12.7,77,0.00,OVC,,0.80,WeatherDisplay:10.37,2013-01-30 21:03:00,
2013-01-30 16:08:00,55.4,48.0,29.40,South,177,10.1,20.7,76,0.00,OVC,,0.80,WeatherDisplay:10.37,2013-01-30 21:08:00,
2013-01-30 16:13:00,55.2,47.8,29.40,WSW,245,20.3,20.3,76,0.00,OVC,,0.80,WeatherDisplay:10.37,2013-01-30 21:13:00,
2013-01-30 16:18:00,55.2,47.8,29.38,WSW,245,20.3,20.3,76,0.00,OVC,,0.80,WeatherDisplay:10.37,2013-01-30 21:18:00,
2013-01-30 16:23:00,55.0,47.6,29.39,West,267,7.6,8.1,76,0.00,OVC,,0.80,WeatherDisplay:10.37,2013-01-30 21:23:00,
2013-01-30 16:28:00,55.0,47.6,29.39,West,267,7.6,8.1,76,0.00,OVC,,0.80,WeatherDisplay:10.37,2013-01-30 21:28:00,
2013-01-30 16:33:00,55.0,47.6,29.40,SW,222,8.0,18.4,76,0.00,OVC,,0.80,WeatherDisplay:10.37,2013-01-30 21:33:00,
2013-01-30 16:38:00,54.9,47.4,29.39,WSW,245,13.9,13.9,76,0.00,OVC,,0.80,WeatherDisplay:10.37,2013-01-30 21:38:00,
2013-01-30 16:43:00,54.9,47.4,29.39,West,267,6.6,6.9,76,0.00,OVC,,0.80,WeatherDisplay:10.37,2013-01-30 21:43:00,
2013-01-30 16:48:00,54.7,47.3,29.38,WSW,245,11.4,11.5,76,0.00,OVC,,0.80,WeatherDisplay:10.37,2013-01-30 21:48:00,
2013-01-30 16:53:00,54.7,47.3,29.38,WSW,245,16.8,19.2,76,0.00,OVC,,0.80,WeatherDisplay:10.37,2013-01-30 21:53:00,
2013-01-30 16:58:00,54.7,47.3,29.38,West,267,19.2,19.2,76,0.00,OVC,,0.80,WeatherDisplay:10.37,2013-01-30 21:58:00,
2013-01-30 17:03:00,54.7,46.9,29.38,West,267,19.2,19.2,75,0.00,OVC,,0.80,WeatherDisplay:10.37,2013-01-30 22:03:00,
2013-01-30 17:08:00,54.5,46.7,29.38,SSW,199,17.0,17.0,75,0.00,OVC,,0.80,WeatherDisplay:10.37,2013-01-30 22:08:00,
2013-01-30 17:13:00,54.5,46.7,29.38,WSW,245,9.6,9.6,75,0.00,OVC,,0.80,WeatherDisplay:10.37,2013-01-30 22:13:00,
2013-01-30 17:18:00,54.5,46.7,29.38,WSW,245,7.1,10.4,75,0.00,OVC,,0.80,WeatherDisplay:10.37,2013-01-30 22:18:00,
2013-01-30 17:23:00,54.1,46.0,29.38,SSW,199,10.8,10.8,74,0.00,OVC,,0.80,WeatherDisplay:10.37,2013-01-30 22:23:00,
2013-01-30 17:28:00,51.8,43.8,29.42,WNW,289,20.6,20.7,74,0.00,OVC,,0.80,WeatherDisplay:10.37,2013-01-30 22:28:00,
2013-01-30 17:33:00,48.6,41.0,29.43,West,267,11.8,11.8,75,0.02,RA,,0.82,WeatherDisplay:10.37,2013-01-30 22:33:00,
2013-01-30 17:38:00,46.0,39.2,29.43,NW,312,14.2,16.1,77,0.04,RA,,0.84,WeatherDisplay:10.37,2013-01-30 22:38:00,
2013-01-30 17:43:00,45.0,39.2,29.44,West,267,14.0,20.1,80,0.04,RA,,0.84,WeatherDisplay:10.37,2013-01-30 22:43:00,
2013-01-30 17:48:00,44.4,39.0,29.45,West,267,6.4,6.9,81,0.04,OVC,,0.84,WeatherDisplay:10.37,2013-01-30 22:48:00,
2013-01-30 18:46:00,41.2,36.7,29.47,NW,312,6.4,6.9,84,0.00,OVC,,0.86,WeatherDisplay:10.37,2013-01-30 23:46:00,
2013-01-30 18:51:00,41.2,36.7,29.49,WSW,245,13.0,16.1,84,0.00,OVC,,0.86,WeatherDisplay:10.37,2013-01-30 23:51:00,
2013-01-30 18:56:00,41.0,36.5,29.49,West,267,5.8,11.5,84,0.00,OVC,,0.86,WeatherDisplay:10.37,2013-01-30 23:56:00,
2013-01-30 19:01:00,40.8,36.4,29.50,West,267,5.4,5.8,84,0.00,OVC,,0.86,WeatherDisplay:10.37,2013-01-31 00:01:00,
2013-01-30 19:06:00,40.6,35.9,29.50,SW,222,17.2,18.4,83,0.02,RA,,0.88,WeatherDisplay:10.37,2013-01-31 00:06:00,
2013-01-30 19:11:00,40.3,35.5,29.51,NNW,335,10.1,10.4,83,0.02,RA,,0.88,WeatherDisplay:10.37,2013-01-31 00:11:00,
2013-01-30 19:16:00,39.7,35.0,29.51,WNW,289,16.9,18.4,83,0.02,OVC,,0.88,WeatherDisplay:10.37,2013-01-31 00:16:00,
2013-01-30 19:21:00,39.4,34.3,29.51,NNW,335,10.4,19.6,82,0.02,OVC,,0.88,WeatherDisplay:10.37,2013-01-31 00:21:00,
2013-01-30 19:26:00,39.0,34.0,29.51,SW,222,14.5,17.3,82,0.02,OVC,,0.88,WeatherDisplay:10.37,2013-01-31 00:26:00,
2013-01-30 19:31:00,38.8,34.1,29.52,WNW,289,15.6,16.1,83,0.02,OVC,,0.88,WeatherDisplay:10.37,2013-01-31 00:31:00,
2013-01-30 19:36:00,38.5,33.8,29.53,WNW,289,9.8,12.7,83,0.02,OVC,,0.88,WeatherDisplay:10.37,2013-01-31 00:36:00,
2013-01-30 19:41:00,38.1,33.4,29.53,WNW,289,22.3,24.2,83,0.02,OVC,,0.88,WeatherDisplay:10.37,2013-01-31 00:41:00,
2013-01-30 19:46:00,37.8,33.1,29.53,WNW,289,6.9,6.9,83,0.02,OVC,,0.88,WeatherDisplay:10.37,2013-01-31 00:46:00,
2013-01-30 19:51:00,37.4,32.4,29.54,West,267,22.3,22.3,82,0.02,OVC,,0.88,WeatherDisplay:10.37,2013-01-31 00:51:00,
2013-01-30 19:56:00,37.4,32.1,29.53,WSW,245,7.4,7.4,81,0.02,OVC,,0.88,WeatherDisplay:10.37,2013-01-31 00:56:00,
2013-01-30 20:01:00,37.0,31.8,29.54,West,267,10.3,10.4,81,0.02,OVC,,0.88,WeatherDisplay:10.37,2013-01-31 01:01:00,
2013-01-30 20:06:00,36.9,31.6,29.54,NW,312,17.9,21.5,81,0.00,OVC,,0.88,WeatherDisplay:10.37,2013-01-31 01:06:00,
2013-01-30 20:11:00,36.7,31.1,29.55,West,267,14.7,21.0,80,0.00,OVC,,0.88,WeatherDisplay:10.37,2013-01-31 01:11:00,
2013-01-30 20:16:00,36.7,31.1,29.56,WNW,289,18.3,18.4,80,0.00,OVC,,0.88,WeatherDisplay:10.37,2013-01-31 01:16:00,
2013-01-30 20:21:00,36.7,31.1,29.55,West,267,21.0,21.0,80,0.00,OVC,,0.88,WeatherDisplay:10.37,2013-01-31 01:21:00,
2013-01-30 20:26:00,36.3,30.1,29.56,NW,312,10.7,17.0,78,0.00,OVC,,0.88,WeatherDisplay:10.37,2013-01-31 01:26:00,
2013-01-30 20:31:00,36.1,29.6,29.57,NW,312,11.9,17.3,77,0.00,OVC,,0.88,WeatherDisplay:10.37,2013-01-31 01:31:00,
2013-01-30 20:36:00,36.0,29.1,29.58,NW,312,14.1,14.1,76,0.00,OVC,,0.88,WeatherDisplay:10.37,2013-01-31 01:36:00,
2013-01-30 20:41:00,35.4,28.3,29.58,WNW,289,19.7,19.7,75,0.00,OVC,,0.88,WeatherDisplay:10.37,2013-01-31 01:41:00,
2013-01-30 20:46:00,35.4,28.3,29.58,West,267,13.9,15.0,75,0.00,OVC,,0.88,WeatherDisplay:10.37,2013-01-31 01:46:00,
2013-01-30 20:51:00,35.2,28.1,29.59,WSW,245,9.6,19.6,75,0.00,OVC,,0.88,WeatherDisplay:10.37,2013-01-31 01:51:00,
2013-01-30 20:56:00,35.2,28.4,29.59,West,267,7.1,7.1,76,0.00,OVC,,0.88,WeatherDisplay:10.37,2013-01-31 01:56:00,
2013-01-30 21:01:00,35.1,28.3,29.60,NW,312,14.0,15.0,76,0.00,OVC,,0.88,WeatherDisplay:10.37,2013-01-31 02:01:00,
2013-01-30 21:06:00,34.9,28.1,29.61,WSW,245,8.5,15.0,76,0.00,OVC,,0.88,WeatherDisplay:10.37,2013-01-31 02:06:00,
2013-01-30 21:11:00,34.9,27.8,29.61,WSW,245,14.2,15.0,75,0.00,OVC,,0.88,WeatherDisplay:10.37,2013-01-31 02:11:00,
2013-01-30 21:16:00,34.7,27.6,29.62,West,267,20.2,21.0,75,0.00,OVC,,0.88,WeatherDisplay:10.37,2013-01-31 02:16:00,
2013-01-30 21:21:00,34.7,27.9,29.62,West,267,8.3,8.3,76,0.00,OVC,,0.88,WeatherDisplay:10.37,2013-01-31 02:21:00,
2013-01-30 21:26:00,34.5,27.7,29.62,West,267,22.3,22.3,76,0.00,OVC,,0.88,WeatherDisplay:10.37,2013-01-31 02:26:00,
2013-01-30 21:31:00,34.3,27.6,29.63,WSW,245,10.9,11.5,76,0.00,OVC,,0.88,WeatherDisplay:10.37,2013-01-31 02:31:00,
2013-01-30 21:36:00,34.3,27.2,29.63,WSW,245,10.5,21.9,75,0.00,OVC,,0.88,WeatherDisplay:10.37,2013-01-31 02:36:00,
2013-01-30 21:41:00,34.3,27.2,29.63,WNW,289,11.4,11.5,75,0.00,OVC,,0.88,WeatherDisplay:10.37,2013-01-31 02:41:00,
2013-01-30 21:46:00,34.3,26.9,29.64,NW,312,13.0,13.8,74,0.00,OVC,,0.88,WeatherDisplay:10.37,2013-01-31 02:46:00,
2013-01-30 21:51:00,34.2,27.1,29.64,West,267,15.2,15.2,75,0.00,OVC,,0.88,WeatherDisplay:10.37,2013-01-31 02:51:00,
2013-01-30 21:56:00,34.0,26.2,29.64,West,267,7.9,8.1,73,0.00,OVC,,0.88,WeatherDisplay:10.37,2013-01-31 02:56:00,
2013-01-30 22:01:00,34.0,26.2,29.65,WSW,245,9.4,13.8,73,0.00,OVC,,0.88,WeatherDisplay:10.37,2013-01-31 03:01:00,
2013-01-30 22:06:00,33.8,26.4,29.65,WNW,289,15.2,15.2,74,0.00,OVC,,0.88,WeatherDisplay:10.37,2013-01-31 03:06:00,
2013-01-30 22:11:00,33.8,26.1,29.65,West,267,8.3,8.3,73,0.00,OVC,,0.88,WeatherDisplay:10.37,2013-01-31 03:11:00,
2013-01-30 22:16:00,33.8,26.1,29.65,West,267,8.3,8.3,73,0.00,OVC,,0.88,WeatherDisplay:10.37,2013-01-31 03:16:00,
2013-01-30 22:21:00,33.6,25.6,29.66,West,267,14.3,14.3,72,0.00,OVC,,0.88,WeatherDisplay:10.37,2013-01-31 03:21:00,
2013-01-30 22:26:00,33.6,25.6,29.66,West,267,13.7,13.7,72,0.00,OVC,,0.88,WeatherDisplay:10.37,2013-01-31 03:26:00,
2013-01-30 22:31:00,33.4,25.7,29.67,WSW,245,11.1,17.2,73,0.00,OVC,,0.88,WeatherDisplay:10.37,2013-01-31 03:31:00,
2013-01-30 22:36:00,33.4,25.7,29.67,WNW,289,19.4,19.4,73,0.00,OVC,,0.88,WeatherDisplay:10.37,2013-01-31 03:36:00,
2013-01-30 22:41:00,33.1,25.7,29.67,WNW,289,8.5,8.5,74,0.00,OVC,,0.88,WeatherDisplay:10.37,2013-01-31 03:41:00,
2013-01-30 22:46:00,33.1,25.4,29.68,NW,312,16.8,23.0,73,0.00,OVC,,0.88,WeatherDisplay:10.37,2013-01-31 03:46:00,
2013-01-30 22:51:00,32.9,24.9,29.68,West,267,15.8,18.3,72,0.00,OVC,,0.88,WeatherDisplay:10.37,2013-01-31 03:51:00,
2013-01-30 22:56:00,32.7,24.7,29.68,WNW,289,8.3,8.3,72,0.00,OVC,,0.88,WeatherDisplay:10.37,2013-01-31 03:56:00,
2013-01-30 23:01:00,32.7,24.3,29.69,WNW,289,8.7,10.4,71,0.00,OVC,,0.88,WeatherDisplay:10.37,2013-01-31 04:01:00,
2013-01-30 23:06:00,32.7,24.3,29.69,NW,312,17.9,18.4,71,0.00,OVC,,0.88,WeatherDisplay:10.37,2013-01-31 04:06:00,
2013-01-30 23:11:00,32.7,24.3,29.69,NW,312,9.4,9.4,71,0.00,OVC,,0.88,WeatherDisplay:10.37,2013-01-31 04:11:00,
2013-01-30 23:16:00,32.7,24.3,29.70,West,267,13.1,15.0,71,0.00,OVC,,0.88,WeatherDisplay:10.37,2013-01-31 04:16:00,
2013-01-30 23:21:00,32.5,24.2,29.71,WNW,289,12.7,12.7,71,0.00,OVC,,0.88,WeatherDisplay:10.37,2013-01-31 04:21:00,
2013-01-30 23:26:00,32.5,24.5,29.71,West,267,9.1,12.3,72,0.00,OVC,,0.88,WeatherDisplay:10.37,2013-01-31 04:26:00,
2013-01-30 23:31:00,32.5,24.5,29.72,NW,312,5.6,5.8,72,0.00,OVC,,0.88,WeatherDisplay:10.37,2013-01-31 04:31:00,
2013-01-30 23:36:00,32.4,24.7,29.72,West,267,13.9,13.9,73,0.00,OVC,,0.88,WeatherDisplay:10.37,2013-01-31 04:36:00,
2013-01-30 23:41:00,32.2,24.2,29.73,West,267,13.0,13.0,72,0.00,OVC,,0.88,WeatherDisplay:10.37,2013-01-31 04:41:00,
2013-01-30 23:46:00,32.2,24.2,29.74,WSW,245,17.8,18.4,72,0.00,OVC,,0.88,WeatherDisplay:10.37,2013-01-31 04:46:00,
2013-01-30 23:51:00,31.8,23.8,29.74,West,267,7.2,18.4,72,0.00,OVC,,0.88,WeatherDisplay:10.37,2013-01-31 04:51:00,
2013-01-30 23:56:00,31.8,24.1,29.74,NW,312,16.8,22.8,73,0.00,OVC,,0.88,WeatherDisplay:10.37,2013-01-31 04:56:00,